De Bilt, Netherlands

7:40 AM CET on November 18, 2017 (GMT +0100)
De Bilt

Weather History for EHDB - June, 2014

Change the Weather History Date:

Tuesday, June 3, 2014

  Actual Average Record
Temperature  
Mean Temperature 56 °F -  
Max Temperature 69 °F 68 °F - ()
Min Temperature 43 °F 50 °F - ()
Degree Days  
Heating Degree Days 9    
Growing Degree Days 6 (Base 50)    
Moisture  
Dew Point 49 °F    
Average Humidity 69    
Maximum Humidity 100    
Minimum Humidity 41    
Precipitation  
Precipitation 0.02 in 0.09 in - ()
Sea Level Pressure  
Sea Level Pressure 29.97 in    
Wind  
Wind Speed 2 mph ()    
Max Wind Speed 7 mph    
Max Gust Speed -    
Visibility 8.7 miles    
Events Rain    
T = Trace of Precipitation, MM = Missing Value Source: Averaged Metar Reports

Daily Weather History Graph

Daily Weather History Graph

Search for Another Location

Airport or City:

Trip Planner

Search our weather history database for the weather conditions in past years. The results will help you decide how hot, cold, wet, or windy it might be!

Date:

Astronomy

Jun. 03, 2014 Rise Set
Actual Time 5:23 AM CEST 9:52 PM CEST
Civil Twilight 4:36 AM CEST 10:39 PM CEST
Nautical Twilight 3:24 AM CEST 11:51 PM CEST
Astronomical Twilight 2:09 AM CEST 1:05 AM CEST
Moon 10:58 AM CEST (6/3) 12:47 AM CEST (6/3)
Length of Visible Light 18h 03m
Length of Day
16h 28m
Waxing Crescent, 28% of the Moon is Illuminated
Jun 3
Waxing Crescent
Jun 5
First Quarter
Jun 13
Full
Jun 19
Last Quarter
Jun 27
New

Hourly Weather History & Observations

Time (CEST) Temp. Dew Point Humidity Pressure Visibility Wind Dir Wind Speed Gust Speed Precip Events Conditions
12:00 AM 50 °F 47 °F 86% 30.06 in 18 mi WNW 2.2 mph - -  
1:00 AM 47 °F 46 °F 96% 30.05 in 8 mi Calm Calm - -  
2:00 AM 46 °F 46 °F 99% 30.04 in 3 mi Calm Calm - -   Mist
3:00 AM 45 °F 45 °F 99% 30.04 in 6 mi Calm Calm - -  
4:00 AM 44 °F 44 °F 100% 30.02 in 5 mi Calm Calm - -   Mist
5:00 AM 44 °F 44 °F 99% 30.01 in 1 mi WSW 2.2 mph - -   Mist
6:00 AM 44 °F 44 °F 100% 30.01 in 4 mi WSW 2.2 mph - -   Mist
7:00 AM 49 °F 48 °F 93% 30.00 in 5 mi ESE 2.2 mph - -   Mist
8:00 AM 56 °F 48 °F 67% 30.00 in 9 mi South 2.2 mph - -   Partly Cloudy
9:00 AM 59 °F 51 °F 66% 29.99 in 10 mi South 2.2 mph - -   Mostly Cloudy
10:00 AM 61 °F 50 °F 59% 29.99 in 9 mi South 4.5 mph - -   Overcast
11:00 AM 64 °F 50 °F 51% 29.99 in 9 mi 2.2 mph - -   Scattered Clouds
12:00 PM 65 °F 51 °F 50% 29.98 in 12 mi WSW 4.5 mph - -   Overcast
1:00 PM 66 °F 51 °F 48% 29.97 in 11 mi South 4.5 mph - -   Overcast
2:00 PM 65 °F 51 °F 50% 29.96 in 10 mi WSW 4.5 mph - - Rain Light Rain Showers
3:00 PM 65 °F 50 °F 48% 29.95 in 12 mi WSW 4.5 mph - - Rain Rain
4:00 PM 67 °F 53 °F 50% 29.94 in 7 mi 2.2 mph - -   Overcast
5:00 PM 68 °F 52 °F 45% 29.92 in 9 mi SSW 6.7 mph - -   Overcast
6:00 PM 70 °F 51 °F 41% 29.91 in 7 mi 2.2 mph - -   Overcast
7:00 PM 67 °F 52 °F 48% 29.89 in 8 mi South 4.5 mph - -   Scattered Clouds
8:00 PM 66 °F 51 °F 47% 29.89 in 14 mi SSW 4.5 mph - -   Partly Cloudy
9:00 PM 62 °F 53 °F 65% 29.89 in 14 mi WNW 6.7 mph - -   Scattered Clouds
10:00 PM 61 °F 54 °F 71% 29.88 in 10 mi NW 4.5 mph - - Rain Light Drizzle
11:00 PM 60 °F 55 °F 78% 29.88 in 8 mi Calm Calm - - Rain Rain